UPM/LBSAT

导读

UPM/LBSAT由西班牙(ES)参与研制,于1995年7月7日08时发射升空。该卫星是欧洲早期航天合作项目产物,依托阿里亚娜火箭完成发射,进入太阳同步轨道运行。作为区域航天技术试验卫星,它验证了多项航天技术,为欧洲后续卫星发展积累了经验,是西班牙参与欧洲航天防务与技术探索的重要早期实践。

基本信息
目录编号:
23607
目录名称:
UPM/LBSAT
国际标识:
1995-033C
轨道中心:
EARTH
卫星名称:
UPM/LBSAT
卫星全名:
--
卫星状态:
在轨 (已飞行11330 天)
发射日期:
1995-07-07 UTC
国别 :
西班牙 (ES)
星等 :
--
轨道信息
数据来源 国际轨道数据
星历时间: 2026-07-14T07:55:11+0800
11小时前
查看轨道信息
半长轴: 6992.259km
偏心率: 0.0006719
轨道倾角: 98.308°
近地点辐角 76.511°
升交点赤经 167.609°
平近点角 283.685°
近地点: 609.423km
远地点: 618.821km
周期: 96.981分钟
每日圈数: 14.848294
详细信息
使用方式:
暂无
2D轨道图
3D轨道图
轨道高度分析图
轨道倾角分析图
轨道综合分析图
查看轨道综合分析图